BEIDOU-3 M21

Last updated on Thu Apr 09 2026 00:02:36 GMT+0000 (Coordinated Universal Time)

1 44794U 19078B 26097.88041618 -.00000038 00000+0 00000+0 0 9993 2 44794 53.9732 302.2636 0005406 40.1589 319.8980 1.86227987 43345
UTC large
Height (km)
Speed (km/s)
/
Latitude / Longitude
Inclination (degrees)
Orbital Period (minutes)
Azimuth
Elevation
Range (km)
Doppler Factor

Next 0 passes for location: London (51.5072 / 0.1276)

Sorry there are no passes over London.
BEIDOU-3 M21